Location: Chodzież
(52.9983°N, 16.9198°E)
Time: 23:22:00
(UTC+01:00)

ISS - Visible Passes

Search period start: 23 January 2019 00:00
Search period end: 02 February 2019 00:00
Orbit: 404 x 410 km, 51.6° (Epoch: 24 January)

Date Brightness Start Highest point End Pass type
(mag) Time Alt. Az. Time Alt. Az. Time Alt. Az.
23 Jan -1.3 18:40:24 10° S 18:41:05 13° S 18:41:05 13° S visible
24 Jan -1.5 17:50:20 10° SSE 17:51:34 12° SE 17:52:04 11° SE visible
24 Jan -0.8 19:24:20 10° SW 19:24:47 13° SW 19:24:47 13° SW visible
25 Jan -2.4 18:33:17 10° SW 18:35:41 27° S 18:35:41 27° S visible
26 Jan -2.0 17:42:27 10° SSW 17:44:58 21° SSE 17:46:30 15° ESE visible
26 Jan -1.5 19:17:51 10° WSW 19:19:14 22° WSW 19:19:14 22° WSW visible
27 Jan -3.3 18:26:36 10° SW 18:29:46 44° SSE 18:30:00 43° SSE visible
28 Jan -2.7 17:35:27 10° SW 17:38:28 33° SSE 17:40:43 15° E visible
28 Jan -2.1 19:11:28 10° WSW 19:13:26 32° WSW 19:13:26 32° WSW visible
29 Jan -3.6 18:20:06 10° WSW 18:23:22 61° S 18:24:07 45° ESE visible
29 Jan -0.4 19:56:31 10° W 19:56:50 12° W 19:56:50 12° W visible
30 Jan -3.2 17:28:47 10° WSW 17:32:00 50° SSE 17:34:47 13° E visible
30 Jan -2.7 19:05:06 10° W 19:07:30 43° WSW 19:07:30 43° WSW visible
31 Jan -3.7 18:13:41 10° W 18:16:59 70° S 18:18:09 36° ESE visible
31 Jan -0.7 19:50:09 10° W 19:50:52 15° W 19:50:52 15° W visible
01 Feb -3.5 17:22:16 10° WSW 17:25:32 65° S 17:28:49 10° E visible
01 Feb -3.2 18:58:42 10° W 19:01:32 53° SW 19:01:32 53° SW visible
